FW0267 Weather Reports


time (UTC)temp
F
wind
direction
speed
knots
gust
knots
rain 1hr
in
rain 24hr
in
rain mn
in
humidity
%
barometer
mb
20260506062028 66 205 1.7 3.5 0.00 0.00 0.00 25 1012.9
20260506061527 66 138 0.9 6.1 0.00 0.00 0.00 27 1012.8
20260506061028 66 194 2.6 6.1 0.00 0.00 0.00 28 1012.7
20260506060526 66 152 0.9 4.3 0.00 0.00 0.00 30 1012.8
20260506051016 68 140 1.7 6.1 0.00 0.00 0.00 42 1013.2
20260506050516 68 173 0.9 7.0 0.00 0.00 0.00 43 1013.3
20260506045013 68 182 0.9 6.1 0.00 0.00 0.00 45 1013.4
20260506044513 69 90 1.7 6.1 0.00 0.00 0.00 45 1013.4
20260506044012 69 240 0.9 6.1 0.00 0.00 0.00 46 1013.4
20260506043516 69 245 0.9 10.4 0.00 0.00 0.00 46 1013.5
20260506043016 69 179 2.6 10.4 0.00 0.00 0.00 47 1013.5
20260506042515 69 191 1.7 7.0 0.00 0.00 0.00 48 1013.5
20260506042010 69 159 1.7 7.0 0.00 0.00 0.00 49 1013.4
20260506041510 69 198 0.9 6.1 0.00 0.00 0.00 51 1013.3
20260506041008 69 198 1.7 6.1 0.00 0.00 0.00 52 1013.4
20260506040508 69 212 1.7 6.1 0.00 0.00 0.00 53 1013.4
20260506040008 69 150 0.9 4.3 0.00 0.00 0.00 54 1013.4
20260506035506 70 196 1.7 4.3 0.00 0.00 0.00 54 1013.4
20260506035006 70 162 1.7 3.5 0.00 0.00 0.00 55 1013.3
20260506034506 70 194 0.0 3.5 0.00 0.00 0.00 55 1013.4
20260506034005 70 171 0.9 3.5 0.00 0.00 0.00 55 1013.4
20260506033606 70 235 0.9 6.1 0.00 0.00 0.00 55 1013.4
20260506033006 70 136 0.9 3.5 0.00 0.00 0.00 55 1013.4
20260506032505 70 198 1.7 3.5 0.00 0.00 0.00 55 1013.4
20260506032005 71 185 0.9 5.2 0.00 0.00 0.00 55 1013.4
20260506031505 71 155 1.7 4.3 0.00 0.00 0.00 55 1013.4
20260506031005 71 196 0.9 6.1 0.00 0.00 0.00 55 1013.3
20260506030504 71 167 1.7 6.1 0.00 0.00 0.00 55 1013.3
20260506030004 71 200 0.9 4.3 0.00 0.00 0.00 54 1013.2
20260506025506 71 186 1.7 4.3 0.00 0.00 0.00 54 1013.2
20260506025003 71 159 0.9 3.5 0.00 0.00 0.00 54 1013.3
20260506024511 71 134 0.9 6.1 0.00 0.00 0.00 54 1013.4
20260506024105 71 168 0.9 6.1 0.00 0.00 0.00 54 1013.4
20260506023605 71 182 0.9 5.2 0.00 0.00 0.00 53 1013.4
20260506023002 72 155 0.9 7.0 0.00 0.00 0.00 53 1013.4
20260506022502 72 225 2.6 7.0 0.00 0.00 0.00 53 1013.3
20260506022002 72 153 1.7 5.2 0.00 0.00 0.00 53 1013.4
20260506021504 72 177 0.0 5.2 0.00 0.00 0.00 53 1013.3
20260506021002 72 194 0.9 4.3 0.00 0.00 0.00 53 1013.3
20260506020502 72 172 1.7 6.1 0.00 0.00 0.00 52 1013.2
20260506020002 72 207 0.9 4.3 0.00 0.00 0.00 52 1013.2
20260506015601 72 207 0.9 4.3 0.00 0.00 0.00 52 1013.2
20260506015101 72 159 0.9 2.6 0.00 0.00 0.00 51 1013.2
20260506014600 72 109 0.9 7.0 0.00 0.00 0.00 51 1013.0
20260506014100 73 173 0.9 7.0 0.00 0.00 0.00 51 1013.0
20260506013600 73 175 0.9 2.6 0.00 0.00 0.00 51 1013.1
20260506013100 73 175 0.9 7.0 0.00 0.00 0.00 51 1013.0
20260506012600 73 217 1.7 9.6 0.00 0.00 0.00 50 1012.9
20260506012103 73 44 1.7 9.6 0.00 0.00 0.00 50 1012.9
20260506011600 73 168 0.0 7.8 0.00 0.00 0.00 49 1012.7
20260506011059 73 159 0.9 6.1 0.00 0.00 0.00 49 1012.7
20260506010559 74 159 0.0 7.8 0.00 0.00 0.00 49 1012.7
20260506005559 74 145 0.9 4.3 0.00 0.00 0.00 48 1012.6
20260506005058 74 160 0.9 5.2 0.00 0.00 0.00 48 1012.5
20260506004603 74 147 0.0 3.5 0.00 0.00 0.00 48 1012.5
20260506004058 74 157 0.0 4.3 0.00 0.00 0.00 47 1012.5
20260506003601 75 177 1.7 4.3 0.00 0.00 0.00 47 1012.4
20260506003116 75 169 0.9 4.3 0.00 0.00 0.00 47 1012.3
20260506002601 75 127 0.0 4.3 0.00 0.00 0.00 47 1012.4
20260506002058 75 155 0.9 5.2 0.00 0.00 0.00 46 1012.5
20260506001618 75 180 0.9 5.2 0.00 0.00 0.00 46 1012.3
20260506001058 76 171 0.0 2.6 0.00 0.00 0.00 46 1012.3
20260506000558 76 192 0.9 4.3 0.00 0.00 0.00 45 1012.3
20260506000105 76 128 0.9 4.3 0.00 0.00 0.00 45 1012.2
20260505235557 76 217 1.7 6.1 0.00 0.00 0.00 45 1012.2
20260505235056 76 169 0.9 6.1 0.00 0.00 0.00 45 1012.3
20260505234612 76 217 0.9 5.2 0.00 0.00 0.00 44 1012.3
20260505234057 77 188 0.0 3.5 0.00 0.00 0.00 44 1012.1
20260505233557 77 160 0.9 7.0 0.00 0.00 0.00 44 1012.1
20260505233057 77 137 0.9 7.8 0.00 0.00 0.00 43 1012.1
20260505232556 77 107 0.9 3.5 0.00 0.00 0.00 43 1012.1
20260505232058 77 150 0.9 7.8 0.00 0.00 0.00 43 1012.1
20260505231556 77 170 1.7 7.8 0.00 0.00 0.00 42 1012.2
20260505231055 77 183 1.7 5.2 0.00 0.00 0.00 41 1012.1
20260505230555 78 45 1.7 5.2 0.00 0.00 0.00 42 1012.1
20260505230055 78 133 0.9 4.3 0.00 0.00 0.00 41 1012.1
20260505225558 78 157 0.9 6.1 0.00 0.00 0.00 41 1012.0
20260505225055 78 219 2.6 6.1 0.00 0.00 0.00 40 1012.1
20260505224555 78 146 0.9 5.2 0.00 0.00 0.00 40 1012.1
20260505224055 79 182 2.6 6.1 0.00 0.00 0.00 39 1012.1
20260505223554 79 153 1.7 10.4 0.00 0.00 0.00 39 1012.1
20260505223105 79 37 0.9 10.4 0.00 0.00 0.00 39 1012.1
20260505222551 79 152 0.9 7.8 0.00 0.00 0.00 39 1012.1
20260505222049 79 203 3.5 7.8 0.00 0.00 0.00 38 1012.0
20260505221548 80 165 0.9 8.7 0.00 0.00 0.00 37 1012.0
20260505221047 80 147 3.5 8.7 0.00 0.00 0.00 37 1012.0
20260505220544 80 229 1.7 10.4 0.00 0.00 0.00 38 1011.9
20260505220047 80 186 1.7 10.4 0.00 0.00 0.00 37 1011.9
20260505215542 80 174 2.6 7.8 0.00 0.00 0.00 36 1011.9
20260505215040 80 153 2.6 9.6 0.00 0.00 0.00 35 1011.9
20260505214552 80 215 0.9 13.0 0.00 0.00 0.00 34 1011.8
20260505214041 80 174 4.3 13.0 0.00 0.00 0.00 33 1011.8
20260505213536 80 230 1.7 8.7 0.00 0.00 0.00 33 1011.9
20260505213034 81 260 3.5 8.7 0.00 0.00 0.00 32 1012.0
20260505212533 81 198 1.7 6.1 0.00 0.00 0.00 32 1011.9
20260505212034 81 230 1.7 4.3 0.00 0.00 0.00 32 1011.9
20260505211540 82 195 1.7 3.5 0.00 0.00 0.00 32 1011.9
20260505211028 82 182 0.9 7.8 0.00 0.00 0.00 32 1012.0
20260505210530 82 167 1.7 7.8 0.00 0.00 0.00 30 1011.9
20260505210025 82 201 1.7 15.6 0.00 0.00 0.00 30 1011.9
20260505205524 82 90 1.7 15.6 0.00 0.00 0.00 30 1012.0
20260505205021 83 150 2.6 12.2 0.00 0.00 0.00 30 1011.9
20260505204522 83 171 2.6 8.7 0.00 0.00 0.00 30 1011.9
20260505204019 83 216 1.7 4.3 0.00 0.00 0.00 30 1011.8
20260505203517 83 206 1.7 4.3 0.00 0.00 0.00 30 1011.7
20260505203016 84 188 1.7 4.3 0.00 0.00 0.00 28 1011.8
20260505202515 84 245 1.7 5.2 0.00 0.00 0.00 28 1011.7
20260505202014 85 247 0.9 5.2 0.00 0.00 0.00 27 1011.8
20260505201512 85 146 2.6 6.1 0.00 0.00 0.00 27 1012.0
20260505201013 85 186 1.7 7.0 0.00 0.00 0.00 27 1011.9
20260505200509 85 251 1.7 7.8 0.00 0.00 0.00 26 1012.0
20260505200008 86 161 2.6 7.8 0.00 0.00 0.00 25 1012.0
20260505195506 86 192 1.7 7.0 0.00 0.00 0.00 26 1012.2
20260505195004 86 221 3.5 9.6 0.00 0.00 0.00 27 1012.2
20260505194504 86 61 2.6 15.6 0.00 0.00 0.00 27 1012.3
20260505194001 86 211 3.5 15.6 0.00 0.00 0.00 26 1012.3
20260505193600 86 234 2.6 13.0 0.00 0.00 0.00 26 1012.2
20260505193059 87 172 4.3 13.0 0.00 0.00 0.00 26 1012.3
20260505192559 87 243 2.6 7.8 0.00 0.00 0.00 26 1012.2
20260505192056 88 227 1.7 5.2 0.00 0.00 0.00 28 1012.4
20260505191556 87 157 1.7 6.1 0.00 0.00 0.00 28 1012.5
20260505191053 87 140 1.7 7.0 0.00 0.00 0.00 28 1012.5
20260505190551 87 145 0.9 8.7 0.00 0.00 0.00 29 1012.6
20260505190050 87 216 1.7 8.7 0.00 0.00 0.00 28 1012.8
20260505185548 87 201 2.6 8.7 0.00 0.00 0.00 27 1012.8
20260505185046 86 148 3.5 8.7 0.00 0.00 0.00 26 1012.9
20260505184550 87 223 1.7 7.8 0.00 0.00 0.00 27 1012.9
20260505184044 87 227 2.6 7.8 0.00 0.00 0.00 26 1012.9
20260505183541 87 223 2.6 7.8 0.00 0.00 0.00 27 1013.0
20260505183045 87 240 3.5 12.2 0.00 0.00 0.00 26 1013.2
20260505182541 87 211 3.5 12.2 0.00 0.00 0.00 27 1013.2
20260505182037 87 271 2.6 7.8 0.00 0.00 0.00 28 1013.2
20260505181536 87 207 1.7 5.2 0.00 0.00 0.00 28 1013.4
20260505181039 87 219 2.6 5.2 0.00 0.00 0.00 27 1013.4
20260505180536 87 191 1.7 4.3 0.00 0.00 0.00 29 1013.4
20260505180031 87 225 1.7 7.0 0.00 0.00 0.00 30 1013.4
20260505175530 86 223 2.6 7.0 0.00 0.00 0.00 31 1013.4
20260505175028 86 180 1.7 5.2 0.00 0.00 0.00 30 1013.5
20260505174527 86 196 1.7 7.8 0.00 0.00 0.00 29 1013.5
20260505174026 85 184 1.7 7.8 0.00 0.00 0.00 29 1013.5
20260505173524 86 221 1.7 7.8 0.00 0.00 0.00 30 1013.6
20260505173022 86 198 3.5 7.8 0.00 0.00 0.00 29 1013.6
20260505172521 86 255 1.7 8.7 0.00 0.00 0.00 32 1013.6
20260505172020 85 199 2.6 8.7 0.00 0.00 0.00 33 1013.6
20260505171518 86 33 1.7 7.8 0.00 0.00 0.00 33 1013.6
20260505171017 86 209 1.7 7.0 0.00 0.00 0.00 35 1013.8
20260505170516 86 230 1.7 4.3 0.00 0.00 0.00 35 1014.0
20260505170015 86 108 0.9 4.3 0.00 0.00 0.00 36 1013.9
20260505165514 85 190 0.9 4.3 0.00 0.00 0.00 37 1014.2
20260505165011 85 196 0.9 6.1 0.00 0.00 0.00 37 1014.1
20260505164510 84 143 0.9 6.1 0.00 0.00 0.00 36 1014.2
20260505164008 84 165 1.7 7.8 0.00 0.00 0.00 36 1014.3
20260505163507 84 169 1.7 8.7 0.00 0.00 0.00 38 1014.3
20260505163006 84 225 0.9 8.7 0.00 0.00 0.00 38 1014.4
20260505162508 84 213 1.7 4.3 0.00 0.00 0.00 38 1014.5
20260505162004 83 134 0.9 3.5 0.00 0.00 0.00 37 1014.5
20260505161501 83 209 0.9 3.5 0.00 0.00 0.00 41 1014.6
20260505161100 83 67 0.9 4.3 0.00 0.00 0.00 40 1014.8
20260505160558 82 219 1.7 5.2 0.00 0.00 0.00 41 1014.8
20260505153052 80 237 0.9 4.3 0.00 0.00 0.00 45 1015.2
20260505152549 79 205 0.9 6.1 0.00 0.00 0.00 45 1015.2
20260505152044 79 212 0.9 3.5 0.00 0.00 0.00 44 1015.2
20260505151546 79 209 1.7 4.3 0.00 0.00 0.00 46 1015.2
20260505151042 78 221 0.9 7.0 0.00 0.00 0.00 46 1015.2
20260505150541 78 222 0.9 7.0 0.00 0.00 0.00 45 1015.2
20260505140525 72 194 1.7 7.0 0.00 0.00 0.00 52 1015.1
20260505125002 65 241 0.9 3.5 0.00 0.00 0.00 40 1015.2
20260505124603 64 242 0.9 3.5 0.00 0.00 0.00 40 1015.2
20260505124100 64 205 0.9 3.5 0.00 0.00 0.00 35 1015.2
20260505123556 63 198 0.9 2.6 0.00 0.00 0.00 33 1015.3
20260505123057 63 198 0.9 5.2 0.00 0.00 0.00 27 1015.3
20260505122553 62 158 0.9 5.2 0.00 0.00 0.00 25 1015.2
20260505122052 62 213 1.7 4.3 0.00 0.00 0.00 20 1015.2
20260505121551 61 234 0.9 4.3 0.00 0.00 0.00 15 1015.2
20260505121050 61 235 1.7 4.3 0.00 0.00 0.00 10 1015.0
20260505120548 60 243 1.7 6.1 0.00 0.00 0.00 4 1015.0
20260505120050 60 215 1.7 6.1 0.00 0.00 0.00 1 1014.9
20260505115545 60 194 1.7 3.5 0.00 0.00 0.00 1 1014.9
20260505115045 59 196 0.9 3.5 0.00 0.00 0.00 1 1014.9
20260505114542 59 109 0.9 3.5 0.00 0.00 0.00 1 1014.9
20260505114040 58 169 0.9 2.6 0.00 0.00 0.00 1 1014.9
20260505113540 58 142 0.9 2.6 0.00 0.00 0.00 1 1014.9
20260505113042 58 142 0.0 1.7 0.00 0.00 0.00 1 1014.8
20260505112535 58 142 0.0 1.7 0.00 0.00 0.00 1 1014.9
20260505112035 57 142 0.0 1.7 0.00 0.00 0.00 1 1014.8
20260505111542 57 142 0.0 1.7 0.00 0.00 0.00 1 1014.8
20260505111032 57 142 0.0 1.7 0.00 0.00 0.00 1 1014.7
20260505110531 57 142 0.0 4.3 0.00 0.00 0.00 1 1014.6
20260505102019 58 136 0.0 0.0 0.00 0.00 0.00 15 1014.2
20260505101529 58 136 0.0 0.0 0.00 0.00 0.00 15 1014.3
20260505101018 58 136 0.0 0.0 0.00 0.00 0.00 17 1014.3
20260505100517 59 136 0.0 0.0 0.00 0.00 0.00 18 1014.2
20260505100017 59 136 0.0 0.0 0.00 0.00 0.00 20 1014.3
20260505095516 59 136 0.0 0.0 0.00 0.00 0.00 21 1014.2
20260505095014 59 136 0.0 0.0 0.00 0.00 0.00 22 1014.2
20260505094514 59 136 0.0 0.0 0.00 0.00 0.00 23 1014.2
20260505094013 59 136 0.0 0.0 0.00 0.00 0.00 24 1014.1
20260505093513 59 136 0.0 0.0 0.00 0.00 0.00 26 1014.1
20260505093012 60 136 0.0 0.0 0.00 0.00 0.00 26 1014.1
20260505092512 60 136 0.0 0.0 0.00 0.00 0.00 27 1014.0
20260505092011 60 136 0.0 0.9 0.00 0.00 0.00 28 1014.0
20260505091510 60 136 0.0 1.7 0.00 0.00 0.00 29 1014.0
20260505091010 60 136 0.0 2.6 0.00 0.00 0.00 30 1014.1
20260505090508 60 136 0.0 2.6 0.00 0.00 0.00 31 1014.0
20260505090011 60 179 0.0 2.6 0.00 0.00 0.00 31 1014.1
20260505085509 60 179 0.0 2.6 0.00 0.00 0.00 32 1014.0
20260505085007 61 179 0.9 2.6 0.00 0.00 0.00 33 1014.1
20260505084523 61 173 0.0 0.0 0.00 0.00 0.00 34 1014.0
20260505084006 61 173 0.0 0.0 0.00 0.00 0.00 34 1014.0
20260505083505 61 173 0.0 0.0 0.00 0.00 0.00 35 1014.0
20260505083005 61 173 0.0 0.0 0.00 0.00 0.00 35 1014.0
20260505082504 61 173 0.0 0.0 0.00 0.00 0.00 36 1014.1
20260505082004 61 173 0.0 0.9 0.00 0.00 0.00 37 1014.0
20260505081503 61 173 0.0 2.6 0.00 0.00 0.00 37 1014.0
20260505081003 61 173 0.9 2.6 0.00 0.00 0.00 38 1014.0
20260505080505 61 197 0.0 3.5 0.00 0.00 0.00 39 1014.0
20260505080004 61 197 1.7 3.5 0.00 0.00 0.00 39 1013.9
20260505075501 61 203 0.9 2.6 0.00 0.00 0.00 40 1014.0
20260505075100 61 203 0.9 2.6 0.00 0.00 0.00 40 1014.0
20260505074559 61 203 0.9 2.6 0.00 0.00 0.00 41 1013.8
20260505074059 61 214 0.0 2.6 0.00 0.00 0.00 42 1013.8
20260505073558 62 215 0.9 2.6 0.00 0.00 0.00 43 1013.8
20260505073102 62 215 0.9 2.6 0.00 0.00 0.00 44 1013.5
20260505072600 62 169 0.0 0.0 0.00 0.00 0.00 45 1013.5
20260505072058 62 158 0.0 3.5 0.00 0.00 0.00 46 1013.5
20260505071600 62 158 0.0 5.2 0.00 0.00 0.00 46 1013.5
20260505071054 62 169 0.9 5.2 0.00 0.00 0.00 47 1013.4
20260505070554 62 190 0.9 4.3 0.00 0.00 0.00 48 1013.3